Regional Weather Roundup
Issued by NWS Charleston, SC

Current Version | Previous Version | Graphics & Text | Print | Product List | Glossary On
Versions: 1 2 3 4 5 6 7 8 9 10 11 12 13 14 15 16 17 18 19 20 21 22 23 24 25 26 27 28 29 30 31 32 33 34 35 36 37 38 39 40 41 42 43 44 45 46 47 48 49 50
000 ASUS42 KCHS 181825 RWRCHS REGIONAL WEATHER ROUNDUP NATIONAL WEATHER SERVICE CHARLESTON SC 200 PM EDT THU SEP 18 2014 NOTE: "FAIR" INDICATES FEW OR NO CLOUDS BELOW 12,000 FEET WITH NO SIGNIFICANT WEATHER AND/OR OBSTRUCTIONS TO VISIBILITY. NOT ALL STATIONS ARE QUALITY CONTROLLED BY THE NATIONAL WEATHER SERVICE. USE DATA WITH CAUTION...ESPECIALLY DEWPOINT OBSERVATIONS. SCZ027-030-031-034>040-042>050-181900- ...SOUTH CAROLINA... CITY SKY/WX TMP DP RH WIND PRES REMARKS N CHARLESTON PTSUNNY 86 69 56 CALM 29.94F HX 90 6HR MIN TEMP: 73; 6HR MAX TEMP: 87; WATERFRONT PRK NOT AVBL FORT JOHNSON NOT AVBL MOUNT PLEASANT MOCLDY 81 72 74 SE3 29.94F JOHNS ISLAND MOCLDY 82 81 94 SE5 29.94F HX 95 PINOPOLIS N/A 79 72 78 N9 29.90F MONCKS CORNER N/A 81 72 74 N7 29.95F SUMMERVILLE FAIR 84 72 65 N7 29.95F BEAUFORT MCAS MOSUNNY 87 71 58 VRB3 29.94F HX 93 6HR MIN TEMP: 73; 6HR MAX TEMP: 87; BEAUFORT ARPT FAIR 84 70 61 CALM 29.93F HILTON HEAD IS MOSUNNY 82 72 69 NE6 29.95F GEORGETOWN NOT AVBL WALTERBORO MOCLDY 82 64 54 N3 29.95F ORANGEBURG PTSUNNY 80 66 62 NE6 29.96F 6HR MIN TEMP: 68; 6HR MAX TEMP: 83; BARNWELL FAIR 84 68 58 CALM 29.96F AIKEN MOCLDY 79 68 69 CALM 30.01F MANNING FAIR 81 70 69 N6 29.97F KINGSTREE NOT AVBL COLUMBIA PTSUNNY 81 65 58 CALM 29.97F 6HR MIN TEMP: 67; 6HR MAX TEMP: 82; SUMTER PTSUNNY 77 64 64 VRB5 29.97F 6HR MIN TEMP: 68; 6HR MAX TEMP: 77; FLORENCE MOSUNNY 83 66 56 NE7 29.97S 6HR MIN TEMP: 71; 6HR MAX TEMP: 83; MYRTLE BEACH PTSUNNY 81 72 74 E14 29.96S N MYRTLE BEACH PTSUNNY 78 71 79 E7 29.96F 6HR MIN TEMP: 68; 6HR MAX TEMP: 81; 6HR PCP: 0.68; $$ GAZ063-065-086>088-099>101-113>116-118-119-134-136>141-150-181900- ...GEORGIA... CITY SKY/WX TMP DP RH WIND PRES REMARKS SAVANNAH ARPT PTSUNNY 85 70 60 NE5 29.93F 6HR MIN TEMP: 75; 6HR MAX TEMP: 88; HUNTER AAF MOSUNNY 80 71 74 SE8 29.92F 6HR MIN TEMP: 71; 6HR MAX TEMP: 84; FORT STEWART MOSUNNY 86 69 56 NW7 29.92F 6HR MIN TEMP: 69; 6HR MAX TEMP: 87; STATESBORO NOT AVBL SYLVANIA PTCLDY 85 71 64 CALM 29.96F HX 90 CLAXTON FAIR 88 73 62 N7 29.94F HX 96 THOMSON MOSUNNY 81 74 80 W3 30.01F AUGUSTA-BUSH PTSUNNY 79 67 66 SE3 29.96F 6HR MIN TEMP: 68; 6HR MAX TEMP: 80; AUGUSTA-DANIEL SUNNY 82 67 60 E6 29.98F SWAINSBORO MOCLDY 82 73 74 CALM 29.97F VIDALIA CLOUDY 81 72 74 N6 29.96F ALMA MOSUNNY 85 71 63 N8 29.94F HX 90 6HR MIN TEMP: 68; 6HR MAX TEMP: 86; WAYCROSS MOSUNNY 90 67 46 NW6 29.92F HX 93 JESUP FAIR 90 72 55 E3 29.93S HX 96 BRUNSWICK PTSUNNY 88 72 58 NE12 29.92F HX 94 SAINT SIMONS MOSUNNY 85 71 63 SE10 29.92F HX 90 6HR MIN TEMP: 73; 6HR MAX TEMP: 87; $$ SCZ027-028-034-036>038-045-046-048>050-GAZ119-141-181900- ...LAKE AND SUPPLEMENTAL COASTAL OBSERVATIONS... STATION/POSITION TIME TEMP WIND PRES WAVE SWELL AIR SEA DIR/SP/G HT/PER HT/PER/DIR (UTC) (F) (DEG/KT/KT) (MB) (FT/S) (FT/S/D) UPR LAKE MARION NOT AVBL WINYAH BAY 1800 80 90/ 7 1014.0S LAKE MURRAY 1700 74 210/ 5/ 7 1014.9F ACE BASIN NERRS 1800 86 140/ 1 1014.0S FORT PULASKI 1800 81 80/ 12/ 14 1013.9F SAPELO ISLAND 1800 88 110/ 5 1014.0S $$ ANZ835-935-AMZ111-154-330-350-352-354-374-450-454-472-181900- ...C-MAN AND BUOY OBSERVATIONS... STATION/POSITION TIME TEMP WIND PRES WAVE SWELL AIR SEA DIR/SP/G HT/PER HT/PER/DIR (UTC) (F) (DEG/KT/KT) (MB) (FT/S) (FT/S/D) FOLLY BEACH CMAN 1800 81 130/ 5/ 7 1014.3F BUOY 41004 1800 80 83 20/ 6/ 8 1013.8F 3/10 3/10 BUOY 41008 1800 82 85 100/ 6/ 8 1013.6F 3/13 3/ 80/13 5E ST. MARYS GA 1800 87 N/A 2/11 2/100/11 FRYING PAN BUOY NOT AVBL BUOY 41025 1800 74 10/ 16/ 19 1015.0R 5/12 3/ 80/12 CAPE LOOKOUT NC 1800 75 40/ 17/ 18 1015.2F BUOY 41002 1718 79 83 30/ 8/ 10 1013.7F 3/12 3/ 40/12 BUOY 41010 1800 82 85 50/ 8/ 10 1013.3F 4/13 5/ 60/13 BUOY 41012 NOT AVBL ST AUGUSTINE FL 1800 80 60/ 5/ 6 1013.9F CAPERS NEARSHORE 1700 84 120/ 4/ 4 N/A FRIPP NEARSHORE NOT AVBL $$

USA.gov is the U.S. government's official web portal to all federal, state and local government web resources and services.